DW3696 Selston UK current weather conditions

sailwx.info

Wind from 252 at 3 knots gusting 6

Air temperature 13.3° C
Dewpoint 11.6° C

Last reported at 2019-Sep-15 07:05 UTC.
Time now 2019-Sep-15 07:34 UTC

Location: N 53°04' W 001°18'.
View on Google Maps.

See reports from other nearby stations

  
Tides and Currents Weather Stations Pressure Air Temp Water Temp Dewpoint Dewpoint Depression Visibility Wind Speed Wind Dir Waves Ship Positions
date/time (UTC)wind fromknots sea level pressurealtimeterstation pressurevisibilityair tempwater tempwave heightnotes
2019-Sep-15 07:05 252 3 gusting 6 13.3
2019-Sep-15 06:56 255 3 gusting 6 12.8
2019-Sep-15 06:46 256 3 gusting 7 12.8
2019-Sep-15 06:36 251 3 gusting 7 12.8
2019-Sep-15 06:26 267 3 gusting 6 12.8
2019-Sep-15 06:16 260 3 gusting 7 12.8
2019-Sep-15 06:06 245 2 gusting 7 12.8
2019-Sep-15 05:56 246 2 gusting 5 12.8
2019-Sep-15 05:46 251 2 gusting 5 12.8
2019-Sep-15 05:36 249 2 gusting 5 12.8
2019-Sep-15 05:26 259 1 gusting 3 12.2
2019-Sep-15 05:16 244 1 gusting 3 12.2
2019-Sep-15 05:06 244 12.2
2019-Sep-15 04:57 244 12.2
2019-Sep-15 04:47 246 12.2
2019-Sep-15 04:37 246 12.2
2019-Sep-15 04:27 246 0 gusting 1 11.7
2019-Sep-15 04:16 246 11.7
2019-Sep-15 04:06 246 0 gusting 3 12.2
2019-Sep-15 03:56 246 2 gusting 4 12.2
2019-Sep-15 03:45 241 0 gusting 6 12.2
2019-Sep-15 03:35 228 1 gusting 4 12.2
2019-Sep-15 03:17 239 1 gusting 4 12.2
2019-Sep-15 03:07 239 1 gusting 4 12.2
2019-Sep-15 02:57 250 0 gusting 2 11.7
2019-Sep-15 02:47 250 11.7
2019-Sep-15 02:36 250 12.2
2019-Sep-15 02:26 250 1 gusting 3 12.2
2019-Sep-15 02:16 251 1 gusting 3 12.2
2019-Sep-15 02:06 251 2 gusting 5 12.2
2019-Sep-15 01:56 217 2 gusting 5 12.2
2019-Sep-15 01:46 209 0 gusting 3 12.2
2019-Sep-15 01:36 207 1 gusting 4 12.8
2019-Sep-15 01:25 244 2 gusting 5 12.8
2019-Sep-15 01:15 253 1 gusting 5 12.8
2019-Sep-15 01:04 249 0 gusting 4 12.8
2019-Sep-15 00:54 246 1 gusting 5 12.8
2019-Sep-15 00:44 254 0 gusting 7 12.8
2019-Sep-15 00:34 311 2 gusting 7 13.3
2019-Sep-15 00:24 257 3 gusting 6 13.3
2019-Sep-15 00:14 252 2 gusting 6 13.3
2019-Sep-15 00:04 265 4 gusting 9 13.3
2019-Sep-14 23:54 269 4 gusting 11 13.3
2019-Sep-14 23:43 316 5 gusting 12 13.3
2019-Sep-14 23:33 265 5 gusting 12 13.9
2019-Sep-14 23:23 267 5 gusting 9 13.9
2019-Sep-14 23:13 217 3 gusting 7 13.3
2019-Sep-14 23:04 267 3 gusting 8 13.3
2019-Sep-14 22:54 257 4 gusting 8 13.9
2019-Sep-14 22:44 254 3 gusting 7 13.9
2019-Sep-14 22:34 266 3 gusting 7 13.9
2019-Sep-14 22:24 254 3 gusting 6 13.9
2019-Sep-14 22:14 232 2 gusting 6 13.9
2019-Sep-14 22:03 248 2 gusting 5 13.9
2019-Sep-14 21:53 220 2 gusting 6 13.9
2019-Sep-14 21:43 223 2 gusting 6 14.4
2019-Sep-14 21:32 231 2 gusting 6 14.4
2019-Sep-14 21:22 252 2 gusting 6 14.4
2019-Sep-14 21:12 244 3 gusting 6 14.4
2019-Sep-14 21:02 245 2 gusting 4 14.4
2019-Sep-14 20:52 254 2 gusting 5 14.4
2019-Sep-14 20:41 246 2 gusting 5 15.0
2019-Sep-14 20:31 238 2 gusting 5 15.0
2019-Sep-14 20:21 223 2 gusting 5 15.0
2019-Sep-14 20:12 209 0 gusting 3 15.0
2019-Sep-14 20:02 207 0 gusting 3 15.0
2019-Sep-14 19:52 207 1 gusting 3 15.6
2019-Sep-14 19:41 231 0 gusting 3 15.6
2019-Sep-14 19:31 243 0 gusting 3 15.6
2019-Sep-14 19:21 243 1 gusting 3 15.6
2019-Sep-14 19:11 244 1 gusting 3 15.6
2019-Sep-14 19:01 243 0 gusting 2 16.1
2019-Sep-14 18:51 242 16.1
2019-Sep-14 18:41 239 16.1
2019-Sep-14 18:31 239 0 gusting 2 16.7
2019-Sep-14 18:21 250 0 gusting 3 16.7
2019-Sep-14 18:03 248 0 gusting 3 16.7
2019-Sep-14 17:52 246 0 gusting 3 16.7
2019-Sep-14 17:42 252 1 gusting 4 17.2
2019-Sep-14 17:32 252 2 gusting 6 17.2
2019-Sep-14 17:22 244 2 gusting 6 17.8
2019-Sep-14 17:12 254 3 gusting 8 18.3
2019-Sep-14 17:02 225 4 gusting 8 18.3
2019-Sep-14 16:52 260 4 gusting 8 18.9
2019-Sep-14 16:42 280 4 gusting 9 18.9
2019-Sep-14 16:31 285 4 gusting 9 19.4
2019-Sep-14 16:22 254 5 gusting 9 19.4
2019-Sep-14 16:12 254 4 gusting 8 19.4
2019-Sep-14 16:02 253 4 gusting 8 19.4
2019-Sep-14 15:52 269 4 gusting 8 19.4
2019-Sep-14 15:42 242 4 gusting 7 19.4
2019-Sep-14 15:32 254 4 gusting 9 19.4
2019-Sep-14 15:21 248 5 gusting 9 19.4
2019-Sep-14 15:11 252 4 gusting 8 18.9
2019-Sep-14 15:01 248 3 gusting 6 18.3
2019-Sep-14 14:51 248 4 gusting 8 18.3
2019-Sep-14 14:41 275 4 gusting 9 18.3
2019-Sep-14 14:31 235 4 gusting 9 18.3
2019-Sep-14 14:21 252 4 gusting 7 18.3
2019-Sep-14 14:10 294 4 gusting 8 18.9
2019-Sep-14 14:00 254 4 gusting 8 18.9
2019-Sep-14 13:50 259 3 gusting 8 18.9
2019-Sep-14 13:40 256 3 gusting 6 18.3
2019-Sep-14 13:30 262 5 gusting 9 18.9
2019-Sep-14 13:20 268 5 gusting 9 18.9
2019-Sep-14 13:11 235 4 gusting 8 18.3
2019-Sep-14 13:01 244 3 gusting 8 18.3
2019-Sep-14 12:50 240 4 gusting 10 18.3
2019-Sep-14 12:40 248 5 gusting 9 17.8
2019-Sep-14 12:27 242 4 gusting 8 18.3
2019-Sep-14 12:17 271 4 gusting 10 18.3
2019-Sep-14 12:07 240 5 gusting 10 17.8
2019-Sep-14 11:57 261 4 gusting 9 17.8
2019-Sep-14 11:47 192 4 gusting 9 17.2
2019-Sep-14 11:36 246 5 gusting 8 17.2
2019-Sep-14 11:26 253 4 gusting 9 16.7
2019-Sep-14 11:16 244 4 gusting 9 16.7
2019-Sep-14 11:06 236 4 gusting 9 16.1
2019-Sep-14 10:56 278 4 gusting 8 16.1
2019-Sep-14 10:46 235 2 gusting 6 16.1
2019-Sep-14 10:36 263 4 gusting 10 16.1
2019-Sep-14 10:26 252 4 gusting 10 15.6
2019-Sep-14 10:16 248 3 gusting 6 15.6
2019-Sep-14 10:06 229 3 gusting 6 15.6
2019-Sep-14 09:55 244 3 gusting 6 15.0
2019-Sep-14 09:46 275 3 gusting 7 14.4
2019-Sep-14 09:36 253 3 gusting 9 14.4
2019-Sep-14 09:25 222 3 gusting 9 13.9
2019-Sep-14 09:15 242 3 gusting 7 13.3
2019-Sep-14 09:05 237 2 gusting 7 12.8
2019-Sep-14 08:56 231 2 gusting 6 12.2
2019-Sep-14 08:45 253 0 gusting 3 11.7
2019-Sep-14 08:36 314 0 gusting 3 10.6
2019-Sep-14 08:26 320 10.6
2019-Sep-14 08:15 320 0 gusting 3 10.0
2019-Sep-14 08:05 320 0 gusting 3 9.4
2019-Sep-14 07:54 070 9.4
2019-Sep-14 07:44 070 8.9
2019-Sep-14 07:34 067 8.9
2019-Sep-14 07:24 065 7.8
2019-Sep-14 07:06 065 7.8
2019-Sep-14 06:57 065 7.2
2019-Sep-14 06:47 065 7.2
2019-Sep-14 06:37 065 7.2
2019-Sep-14 06:27 065 7.2
2019-Sep-14 06:17 065 6.1
2019-Sep-14 06:07 065 6.1
2019-Sep-14 05:57 065 6.1
2019-Sep-14 05:47 065 6.1
2019-Sep-14 05:36 065 6.1
2019-Sep-14 05:26 065 6.1
2019-Sep-14 05:16 065 6.1
2019-Sep-14 05:06 065 6.1
2019-Sep-14 04:56 065 6.1
2019-Sep-14 04:44 065 6.1
2019-Sep-14 04:34 065 6.7
2019-Sep-14 04:23 065 6.7
2019-Sep-14 04:13 065 6.7
2019-Sep-14 04:03 065 6.7
2019-Sep-14 03:52 065 6.7
2019-Sep-14 03:43 065 6.7
2019-Sep-14 03:32 065 6.7
2019-Sep-14 03:22 065 6.7
2019-Sep-14 03:12 065 6.7
2019-Sep-14 03:02 065 6.7
2019-Sep-14 02:52 065 7.2
2019-Sep-14 02:42 065 7.2
2019-Sep-14 02:31 065 7.2
2019-Sep-14 02:21 065 7.2
2019-Sep-14 02:10 065 7.2
2019-Sep-14 02:01 065 7.2
2019-Sep-14 01:51 065 7.2
2019-Sep-14 01:41 065 7.2
2019-Sep-14 01:31 065 7.2
2019-Sep-14 01:21 065 7.2
2019-Sep-14 01:10 065 7.2
2019-Sep-14 01:00 065 7.2
2019-Sep-14 00:50 065 7.8
2019-Sep-14 00:39 065 7.8
2019-Sep-14 00:29 065 7.8
2019-Sep-14 00:19 065 8.3
2019-Sep-14 00:10 065 8.3
2019-Sep-14 00:00 065 8.3
2019-Sep-13 23:49 065 8.9
2019-Sep-13 23:39 065 8.9
2019-Sep-13 23:29 065 8.9
2019-Sep-13 23:19 065 9.4
2019-Sep-13 23:09 065 9.4
2019-Sep-13 22:57 065 9.4
2019-Sep-13 22:47 065 9.4
2019-Sep-13 22:36 065 9.4
2019-Sep-13 22:26 065 9.4
2019-Sep-13 22:17 332 9.4
2019-Sep-13 22:07 331 9.4
2019-Sep-13 21:57 331 10.0
2019-Sep-13 21:47 331 10.0
2019-Sep-13 21:36 331 10.0
2019-Sep-13 21:26 332 10.0
2019-Sep-13 21:16 331 10.6
2019-Sep-13 21:06 331 10.6
2019-Sep-13 20:56 331 10.6
2019-Sep-13 20:46 332 11.1
2019-Sep-13 20:36 332 11.1
2019-Sep-13 20:26 331 11.1
2019-Sep-13 20:16 331 11.7
2019-Sep-13 19:54 331 11.7
2019-Sep-13 19:44 331 11.7
2019-Sep-13 19:33 331 11.7
2019-Sep-13 19:24 331 12.2
2019-Sep-13 19:13 331 12.2
2019-Sep-13 19:03 331 12.8
2019-Sep-13 18:53 331 13.3
2019-Sep-13 18:43 331 13.3
2019-Sep-13 18:33 331 14.4
2019-Sep-13 18:23 331 14.4
2019-Sep-13 18:12 331 15.0
2019-Sep-13 18:02 331 15.6
2019-Sep-13 17:52 333 0 gusting 2 16.1
2019-Sep-13 17:42 048 17.2
2019-Sep-13 17:32 054 17.2
2019-Sep-13 17:22 054 17.2
2019-Sep-13 17:11 308 17.8
2019-Sep-13 17:01 308 18.3
2019-Sep-13 16:51 037 18.3
2019-Sep-13 16:41 036 18.3
2019-Sep-13 16:31 036 18.3
2019-Sep-13 16:21 043 18.3
2019-Sep-13 16:11 055 18.3
2019-Sep-13 16:01 055 0 gusting 4 18.9
2019-Sep-13 15:50 055 18.3
2019-Sep-13 15:40 032 0 gusting 7 18.3
2019-Sep-13 15:31 005 0 gusting 7 17.8
2019-Sep-13 15:20 307 0 gusting 3 17.8
2019-Sep-13 15:09 302 1 gusting 5 18.3
2019-Sep-13 14:59 283 1 gusting 5 18.3
2019-Sep-13 14:49 334 0 gusting 6 18.3
2019-Sep-13 14:38 340 1 gusting 6 18.3
2019-Sep-13 14:26 304 1 gusting 5 17.8
2019-Sep-13 14:16 319 1 gusting 6 17.8
2019-Sep-13 14:06 313 2 gusting 6 17.8
2019-Sep-13 13:56 331 0 gusting 6 17.8
2019-Sep-13 13:46 342 1 gusting 6 17.8
2019-Sep-13 13:36 297 1 gusting 6 17.8
2019-Sep-13 13:26 281 2 gusting 6 17.8
2019-Sep-13 13:16 333 2 gusting 6 17.8
2019-Sep-13 13:06 293 2 gusting 6 17.8
2019-Sep-13 12:56 325 1 gusting 6 17.8
2019-Sep-13 12:46 286 1 gusting 6 17.8
2019-Sep-13 12:36 293 1 gusting 5 17.2
2019-Sep-13 12:26 319 1 gusting 4 17.8
2019-Sep-13 12:16 286 1 gusting 5 17.8
2019-Sep-13 12:06 303 0 gusting 5 17.2
2019-Sep-13 11:55 317 0 gusting 5 17.2
2019-Sep-13 11:45 271 1 gusting 5 17.2
2019-Sep-13 11:35 326 0 gusting 3 16.7
2019-Sep-13 11:24 284 16.1
2019-Sep-13 11:14 294 0 gusting 3 16.7
2019-Sep-13 11:03 296 0 gusting 5 16.7
2019-Sep-13 10:40 328 0 16.1
2019-Sep-13 10:30 306 0 gusting 6 16.1
2019-Sep-13 10:20 321 0 gusting 6 16.1
2019-Sep-13 10:10 300 0 15.6
2019-Sep-13 09:59 315 15.6
2019-Sep-13 09:49 319 15.0
2019-Sep-13 09:39 037 15.0
2019-Sep-13 09:29 323 0 gusting 3 14.4
2019-Sep-13 09:19 323 0 gusting 3 14.4
2019-Sep-13 09:09 317 0 gusting 3 13.9
2019-Sep-13 08:59 317 0 gusting 3 13.9
2019-Sep-13 08:49 334 13.3
2019-Sep-13 08:39 326 13.3
2019-Sep-13 08:28 331 12.8
2019-Sep-13 08:18 331 12.2
2019-Sep-13 08:07 333 11.1
2019-Sep-13 07:57 333 10.6
2019-Sep-13 07:47 333 10.0
2019-Sep-13 07:37 333 9.4
2019-Sep-13 07:27 333 8.9
2019-Sep-13 07:16 333 8.9
2019-Sep-13 07:06 333 8.3